www.pogodaiklimat.ru

Погода и климат >> Архив погоды >> Россия >> Камчатский край >> Петропавловский Маяк


ПОГОДА в Петропавловском Маяке

  • Прогноз погоды в Петропавловском Маяке
  • Монитор погоды в Петропавловском Маяке

АРХИВ ПОГОДЫ в Петропавловском Маяке

Время (UTC), дата Ветер
(напр.,м/с)
 
Видим.   Явления Облачность Т
(С)
Тd
(С)
f
(%)
Тe
(С)
Тes
(С)
Комфортность P
(гПа)
Po
(гПа)
Тmin
(С)
Tmax
(С)
R
(мм)
R24
(мм)
S
(см)
18 16.07 СЗ 3 20 км ясно +12.6 +12.3 98 +11 +11 1014.4 1000.0
21 16.07 СЗ 1 20 км ясно +15.8 +13.7 87 +16 +23 1013.2 999.0 +12.5
00 17.07 В 4 20 км туман местами 6/0
[Cs]
+14.4 +12.5 88 +13 +22 1013.2 998.9
03 17.07 ЮВ 5 4000 м в посл. час туман 3/3 100 м
[St]
+14.2 +13.2 94 +12 +18 1014.3 1000.0
06 17.07 В 6 500 м туман ?/? +13.9 +13.3 96 +12 +12 1013.0 998.7
09 17.07 В 5 50 м туман ?/? +10.9 +10.9 100 +8 +8 1013.1 998.7 +16.8
12 17.07 В 2 50 м туман ?/? +10.1 +10.1 100 +8 +8 1014.5 1000.0
15 17.07 В 1 50 м туман ?/? +10.3 +10.3 100 +10 +10 1014.5 1000.0
18 17.07 С 1 200 м туман ?/? +10.5 +10.5 100 +10 +10 1014.5 1000.0
21 17.07 ЮВ 1 50 м туман ?/? +11.0 +11.0 100 +11 +11 1014.3 999.8 +9.9 0.3
00 18.07 ЮВ 3 200 м туман ?/? +11.9 +11.9 100 +10 +10 1013.9 999.6
03 18.07 ЮВ 4 200 м туман н/о +12.9 +12.9 100 +11 1014.3 1000.0
06 18.07 СЗ 1 20 км {туман} 8/0
[Ac As Ci sp]
+14.7 +13.2 91 +15 +18 1014.3 1000.0
09 18.07 СЗ 6 50 км 8/0
[Ac cuf Ci fib]
+17.9 +12.1 69 +17 +17 1014.1 1000.0 +20.6
12 18.07 СЗ 10-14
{14}
20 км 8/0
[Ac cast Ci fib]
+16.8 +13.5 81 +15 +15 1014.3 1000.1
15 18.07 СЗ 8-13
{14}
20 км 8/0
[Ci fib]
+15.9 +13.2 84 +14 +14 1015.3 1001.1
18 18.07 СЗ 8-12
{13}
50 км 4/0
[Ac cast Ci fib]
+16.4 +13.0 80 +15 +15 1016.1 1001.9
21 18.07 СЗ 7-10
{13}
50 км 3/0
[Ac trans Ci fib]
+18.1 +14.0 77 +17 +19 1017.2 1003.1 +15.3
00 19.07 ЮЗ 4
{11}
50 км 1/0
[Ci fib]
+20.6 +14.6 68 +23 +33 комфорт 1017.9 1003.9
03 19.07 Ю 6 50 км 3/1 600 м
[Cu Sc Ci fib]
+17.7 +13.8 78 +17 +22 1019.5 1005.3
06 19.07 Ю 4
{10}
50 км ясно +17.8 +13.3 75 +18 +21 1018.2 1004.0
09 19.07 СЗ 6 50 км 1/0
[Ci fib]
+20.0 +14.8 72 +22 +22 комфорт 1019.4 1005.3 +22.9
12 19.07 СЗ 6
{11}
20 км 1/0
[Ac As]
+17.6 +14.1 80 +17 +17 1019.5 1005.3
15 19.07 СЗ 7
{10}
20 км 4/0
[Ci fib]
+16.6 +13.9 84 +15 +15 1020.9 1006.7
18 19.07 СЗ 6
{10}
50 км 8/6
[Sc Ac As Ci sp]
+15.2 +13.7 91 +14 +14 1021.0 1006.7
21 19.07 СЗ 6
{11}
50 км 9/0
[Ac As]
+16.5 +14.2 86 +15 +16 1020.4 1006.1 +14.9
00 20.07 СЗ 3 50 км 9/0
[Ac As]
+18.2 +14.7 80 +19 +23 1020.6 1006.4
03 20.07 Ю 2 50 км 9 баллов +19.6 +14.4 72 +22 +23 комфорт 1020.8 1006.7
06 20.07 СЗ 4 50 км 9/5 1000 м
[Cb cap Ac As Ci sp]
+18.9 +13.5 71 +20 +20 1020.8 1006.7
09 20.07 СЗ 5
{13}
50 км 9/4 1000 м
[Sc Ac As Ci sp]
+18.0 +12.9 72 +18 +18 1020.9 1006.7 +21.3
12 20.07 СЗ 6
{11}
20 км 10/6 600 м
[Cb cap Ac und]
+15.8 +14.1 90 +14 +14 1019.2 1005.0
15 20.07 СЗ 7
{10}
20 км {ливн. осадки} 8/3 1000 м
[Sc Ac As]
+15.4 +13.8 90 +14 +14 1018.1 1003.9
18 20.07 СЗ 8-12
{12}
50 км {ливн. осадки} 8/4 600 м
[Sc Ac As]
+16.1 +13.0 82 +14 +14 1017.1 1002.9
21 20.07 СЗ 8-13
{13}
50 км 8/3 600 м
[Sc Ac As]
+17.4 +13.6 78 +16 +17 1016.9 1002.7 +15.1 0.6
00 21.07 СЗ 10-15
{15}
50 км 10/4 1000 м
[Sc diur, vesp Ac As Cs]
+19.8 +13.4 67 +21 +21 комфорт 1015.4 1001.3
03 21.07 СЗ 8-15
{15}
50 км 10/3 1000 м
[Sc diur, vesp Ac As Cs]
+19.6 +13.5 68 +21 +22 комфорт 1014.0 1000.0
06 21.07 СЗ 9-14
{18}
50 км 10/0
[Ac As Cs]
+18.7 +12.3 66 +18 +19 1012.8 998.8
09 21.07 СЗ 8-11
{18}
50 км 10/1 300 м
[St Ac und]
+17.1 +10.5 65 +16 +16 1012.8 998.7 +21.5
12 21.07 СЗ 8-11
{12}
20 км 10/0
[Ac As]
+15.5 +11.6 78 +14 +14 1011.3 997.1
15 21.07 З 3
{14}
20 км 10/0
[Ac As]
+15.0 +10.8 76 +14 +14 1011.5 997.3
18 21.07 СЗ 7-12
{12}
20 км слаб. ливневой дождь 10/5 600 м
[Cb cap Ac und]
+12.0 +10.8 92 +9 +9 1011.5 997.1
21 21.07 СЗ 8-12
{13}
50 км {ливн. осадки} 9/0
[Ac trans]
+12.8 +9.1 78 +10 +10 1010.9 996.6 +11.6 1
00 22.07 СЗ 6
{12}
50 км {ливн. осадки} 1/0
[Ac cuf]
+17.1 +11.3 69 +16 +21 1009.8 995.7
03 22.07 Ю 5 50 км 1/1 1000 м
[Sc diur, vesp]
+15.7 +11.7 77 +15 +21 1010.2 996.0
06 22.07 Ю 4 50 км ясно +15.5 +12.3 81 +15 +18 1008.8 994.7
09 22.07 В 3 50 км 1/0
[Ac cuf]
+13.1 +11.7 91 +12 +12 1010.3 996.0 +20.1
12 22.07 З 2 20 км 8/0
[Ci fib]
+12.3 +11.5 95 +11 +11 1010.3 996.0
15 22.07 СЗ 6 20 км 10/0
[Cs]
+11.7 +10.8 94 +9 +9 1010.4 996.0
18 22.07 СЗ 6 50 км 10 баллов +11.4 +10.3 93 +8 +8 1010.4 996.0
21 22.07 СЗ 5 50 км 10/0
[Ac und]
+12.0 +10.2 89 +9 +10 1009.6 995.3 +11.2
00 23.07 СЗ 2 50 км 10/0
[Ac As]
+15.2 +10.0 71 +15 +19 1009.4 995.2
03 23.07 Ю 4 50 км 10 баллов +13.3 +11.0 86 +12 +12 1010.3 996.0
06 23.07 СЗ 3 50 км 10 баллов +14.2 +11.0 81 +13 +13 1010.2 996.0
09 23.07 СЗ 4 50 км 10/3 1000 м
[Sc Ac As]
+14.2 +9.6 74 +13 +13 1010.2 996.0 +15.8
12 23.07 СЗ 5 20 км 10 баллов +14.2 +10.0 76 +13 +13 1010.2 996.0

 

Местоположение метеостанции Петропавловский Маяк (Камчатский край, Россия): широта 52.88 долгота 158.70 высота над уровнем моря 120 м.

В архиве по умолчанию представлена погода в Петропавловском Маяке за последнюю неделю. Архивные данные за месяц целиком и за предыдущие месяцы, начиная с января 2011 года, Вы можете получить, выбрав интересующий диапазон дат из раскрывающегося списка и нажав кнопку "Ввод!".


*Определитесь, кто Вы:
робот инопланетянин человек

Внимание! Время в таблицах - всемирное. Для получения местного времени необходимо прибавить поправку, которая равна 12 ч.

Смотрите также архив погоды в соседних городах и на ближайших метеорологических станциях:

Погода в Петропавловск-Камчатском (Камчатский край, Россия) (7 км)
Погода в Петропавловск-Камч. 2 (Камчатский край, Россия) (26 км)
Погода в Сосновке (Камчатский край, Россия) (35 км)
Погода в Начиках (Камчатский край, Россия) (72 км)
Погода в Водопадной (Камчатский край, Россия) (127 км)
Погода в Пущино (Камчатский край, Россия) (152 км)
Погода в Семячике (Камчатский край, Россия) (159 км)
Погода в Большерецке (Камчатский край, Россия) (161 км)
Погода в Мильково (Камчатский край, Россия) (201 км)
Погода в Озерной (Камчатский край, Россия) (221 км)

Пояснения к столбцам:

Ветер - указаны скорость ветра в м/с - средняя за 10 мин, порывы в срок и между сроками (в фигурных скобках) и направление, откуда дует ветер: С - северный, СВ - северо-восточный, В - восточный, ЮВ - юго-восточный, Ю - южный, ЮЗ - юго-западный, З - западный, СЗ - северо-западный.
Видимость - горизонтальная дальность видимости в метрах или километрах. При видимости от 1 до 10 км при отсутствии осадков обычно наблюдается дымка, при ухудшении видимости до 1 км и менее - туман. В сухую погоду видимость может ухудшаться дымом, пылью или мглою.
Явления - указаны атмосферные явления, наблюдавшиеся в срок или в последний час перед сроком; фигурными скобками обозначены явления, наблюдавшиеся между сроками (за 1-3 часа до срока); квадратными скобками обозначены град или гололедные отложения с указанием их диаметра в мм.
Облачность - указаны через наклонную черту общая и нижняя облачность в баллах и высота нижней границы облаков в метрах; квадратными скобками обозначены формы облаков: Ci - перистые, Cs - перисто-слоистые, Cc - перисто-кучевые, Ac - высококучевые, As - высокослоистые, Sc - слоисто-кучевые, Ns - слоисто-дождевые, Cu - кучевые, Cb - кучево-дождевые. Подробнее классификацию облаков см. в Атласе облаков (PDF).
T - Температура воздуха - температура, измеренная на высоте 2 м над землей.
Td - Температура точки росы - температура, при понижении до которой содержащийся в воздухе водяной пар достигнет насыщения.
f - Относительная влажность воздуха - влажноcть воздуха, измеренная на высоте 2 м над землей.
Te - Эффективная температура - температура, которую ощущает одетый по сезону человек в тени. Характеристика душности погоды. При расчете учитывается влияние влажности воздуха и скорости ветра на теплоощущения человека.
Tes - Эффективная температура на солнце - температура, которую ощущает человек, с поправкой на солнечный нагрев. Характеристика знойности погоды. Зависит от высоты солнца над горизонтом, облачности и скорости ветра. Ночью, в пасмурную погоду, а также при ветре 12 м/с и более поправка равна нулю.
P - Атмосферное давление - приведенное к уровню моря атмосферное давление.
Po - Атмосферное давление - измеренное на уровне метеостанции атмосферное давление.
Tmin - Минимальная температура - минимум температуры воздуха на высоте 2 м над землей.
Tmax - Максимальная температура - максимум температуры воздуха на высоте 2 м над землей.
R - Количество осадков - Количество выпавших осадков за период времени, мм. При наведении курсора мыши на число - период времени, за который выпало указанное количество осадков.
R24 - Количество осадков - Количество выпавших осадков за 24 часа, мм.
S - Снежный покров - Высота снежного покрова, см. При наведении курсора мыши на число - состояние снежного покрова и степень покрытия местности в баллах.